Showing default

GARAI-A, 62635

Orbit data source: Space-Track

GARAI-A, 62635 is a payload satellite owned by Satlantis (ES) in SSO that was launched on Tue, 14 Jan 2025 UTC via an FALCON 9 launch vehicle from the Air Force Western Test Range (AFWTR). Payload-class satellites include a variety of spacecraft equipped with specific instruments for various scientific and technological missions. These include communications satellites like Starlink; space stations such as the ISS; scientific satellites like the Hubble; Earth observation satellites from companies like Planet Labs, Umbra, and HawkEye 360; GPS; miniature CubeSats for education and research; and military/defense satellites.

Loading next visibility...
Identifier
62635, 2025-009AC
Orbit
SSO
Country
Flag of ESES / SPN
Related business
Manufacturer
OHB-SE
Mission
Operational Commercial Imaging
Bus & Motor
INNOSAT, Unknown motor
Mass
115 kg wet, 115 kg dry
Launch date (UTC)
2025-01-14 (7 months ago)
Launch vehicle
FALCON 9
Launch site
Air Force Western Test Range (AFWTR)
Object type
Payload
Rocket body
Debris
Shape & HBR
Box, 2.6 m
Radar Cross Section
1.305 m², Large (>1 m²)

Expand to show TLE details & history
Last TLE update: 20 hours ago

TLE from 20 hours ago
0 GARAI-A
1 62635U 25009AC  25241.21044949  .00012231  00000-0  54988-3 0  9991
2 62635  97.4259 320.6337 0001628 237.3914 122.7165 15.21269018 34398
Epoch: 2025-08-29T05:03Z
TLE epoch observation values (Epoch: 2025-08-29T05:03:02.835Z)
Latitude
-0.00003°
Longitude
-92.79047°
Altitude
505.709 km
Speed
7.611 km/s
True Right ascension
21h 22m 32s
True Declination
0° 00' 00"
Sunlit
Object was in full shadow at epoch
Visualization orbit readout
Latitude
Unknown
Longitude
Unknown
Altitude
Unknown
Speed
Unknown
Apparent Right ascension
Unknown
Apparent Declination
Unknown
Sunlit
N/A
Visualization observer readout
Local Sidereal Time
17:00:37
Azimuth
Unknown
Elevation
Unknown
Doppler factor
Unknown
Orbital elements
Apogee altitude
500.096 km
Perigee altitude
497.857 km
Semi-major axis
6,877.114 km
Eccentricity
0.00016
Inclination
97.4259°
RAAN
320.6337°
Arg. of periapsis
237.3914°
True anomaly
122.73219°
Mean anomaly
122.7165°
Eccentric anomaly
122.72435°
Mean motion
3.80569 °/min
Orbital period
94.6 mins
BSTAR
0.00054988
Loading maneuver chart data...
Computing Atmospheric mass density...
Loading historical data...
Loading historical data...
Loading historical data...
Loading historical data...
Loading historical data...
Loading historical data...
Loading historical data...

Documentation

Showing up to 5 results
|